GW3509 Weather Reports


time (UTC)temp
C
wind
direction
speed
KPH
gust
KPH
rain 1hr
cm
rain 24hr
cm
rain mn
cm
humidity
%
barometer
mb
20260504184314 -17 77 3.2 3.2 0.00 0.00 0.00 1001.0
20260504183809 -17 72 0.0 0.0 0.00 0.00 0.00 1000.9
20260504183307 -17 137 1.6 3.2 0.00 0.00 0.00 1001.1
20260504182805 -17 45 0.0 0.0 0.00 0.00 0.00 1001.2
20260504182304 -17 32 3.2 3.2 0.00 0.00 0.00 1001.3
20260504181759 -17 55 1.6 1.6 0.00 0.00 0.00 1001.1
20260504181256 -17 102 1.6 1.6 0.00 0.00 0.00 1001.2
20260504180755 -17 90 0.0 0.0 0.00 0.00 0.00 1001.4
20260504180254 -17 335 1.6 1.6 0.00 0.00 0.00 1001.1
20260504175751 -17 191 3.2 3.2 0.00 0.00 0.00 1001.2
20260504175248 -17 141 1.6 1.6 0.00 0.00 0.00 1001.7
20260504174745 -17 146 3.2 3.2 0.00 0.00 0.00 1001.7
20260504174243 -17 189 4.8 4.8 0.00 0.00 0.00 1001.4
20260504173739 -17 202 3.2 3.2 0.00 0.00 0.00 1001.7
20260504173237 -17 210 1.6 1.6 0.00 0.00 0.00 1001.8
20260504172733 -17 137 4.8 4.8 0.00 0.00 0.00 1001.8
20260504172230 -17 80 1.6 1.6 0.00 0.00 0.00 1001.8
20260504171726 -17 171 3.2 3.2 0.00 0.00 0.00 1002.1
20260504171223 -17 3 1.6 3.2 0.00 0.00 0.00 1002.0
20260504170720 -17 169 4.8 4.8 0.00 0.00 0.00 1002.3
20260504170217 -17 117 0.0 1.6 0.00 0.00 0.00 1002.5
20260504160136 -17 77 0.0 0.0 0.00 0.00 0.00 1003.8
20260504151103 -17 72 0.0 0.0 0.00 0.00 0.00 1003.9
20260504150601 -17 34 3.2 3.2 0.00 0.00 0.00 1003.9
20260504141026 -17 59 0.0 1.6 0.00 0.00 0.00 1003.9
20260504140523 -17 94 1.6 1.6 0.00 0.00 0.00 1003.9
20260504130447 -17 88 0.0 0.0 0.00 0.00 0.00 1004.6
20260504110329 -17 89 0.0 0.0 0.00 0.00 0.00 1005.0
20260504100245 -17 94 0.0 0.0 0.00 0.00 0.00 1004.6
20260504081639 -17 79 0.0 0.0 0.00 0.00 0.00 1004.1
20260504081135 -17 81 0.0 0.0 0.00 0.00 0.00 1004.3
20260504080632 -17 95 0.0 0.0 0.00 0.00 0.00 1004.3
20260504080128 -17 83 0.0 0.0 0.00 0.00 0.00 1004.3
20260504050444 -17 68 0.0 0.0 0.00 0.00 0.00 1004.9
20260504045941 -17 66 0.0 0.0 0.00 0.00 0.00 1005.0
20260504045437 -17 79 0.0 0.0 0.00 0.00 0.00 1005.0
20260504044933 -17 49 1.6 1.6 0.00 0.00 0.00 1005.4
20260504044431 -17 59 0.0 0.0 0.00 0.00 0.00 1005.2
20260504043928 -17 82 0.0 0.0 0.00 0.00 0.00 1005.4
20260504043425 -17 78 0.0 0.0 0.00 0.00 0.00 1005.4
20260504042918 -17 89 0.0 0.0 0.00 0.00 0.00 1005.6
20260504042414 -17 80 0.0 0.0 0.00 0.00 0.00 1005.6
20260504041910 -17 52 0.0 1.6 0.00 0.00 0.00 1005.6
20260504041407 -17 56 0.0 0.0 0.00 0.00 0.00 1005.7
20260504040903 -17 63 0.0 0.0 0.00 0.00 0.00 1005.8
20260504040400 -17 77 0.0 0.0 0.00 0.00 0.00 1005.9
20260504035855 -17 37 0.0 0.0 0.00 0.00 0.00 1005.8
20260504035353 -17 75 0.0 0.0 0.00 0.00 0.00 1005.8
20260504034849 -17 74 0.0 0.0 0.00 0.00 0.00 1006.0
20260504034347 -17 81 0.0 0.0 0.00 0.00 0.00 1006.2
20260504033844 -17 81 0.0 0.0 0.00 0.00 0.00 1006.4
20260504033342 -17 66 0.0 0.0 0.00 0.00 0.00 1006.5
20260504032838 -17 66 0.0 0.0 0.00 0.00 0.00 1006.3
20260504032336 -17 68 0.0 0.0 0.00 0.00 0.00 1006.6
20260504031832 -17 57 0.0 0.0 0.00 0.00 0.00 1006.3
20260504031330 -17 74 0.0 0.0 0.00 0.00 0.00 1006.2
20260504030826 -17 50 0.0 0.0 0.00 0.00 0.00 1006.0
20260504030323 -17 81 0.0 0.0 0.00 0.00 0.00 1006.0
20260504025819 -17 64 0.0 0.0 0.00 0.00 0.00 1006.0
20260504025317 -17 81 0.0 0.0 0.00 0.00 0.00 1006.1
20260504024813 -17 70 0.0 0.0 0.00 0.00 0.00 1006.2
20260504024310 -17 75 0.0 0.0 0.00 0.00 0.00 1005.9
20260504023806 -17 71 0.0 0.0 0.00 0.00 0.00 1006.3
20260504023303 -17 54 1.6 1.6 0.00 0.00 0.00 1006.0
20260504022759 -17 75 1.6 1.6 0.00 0.00 0.00 1006.2
20260504022256 -17 68 0.0 0.0 0.00 0.00 0.00 1006.0
20260504021752 -17 73 0.0 1.6 0.00 0.00 0.00 1006.2
20260504021250 -17 75 0.0 0.0 0.00 0.00 0.00 1006.1
20260504020747 -17 59 0.0 0.0 0.00 0.00 0.00 1006.3
20260504020243 -17 70 0.0 0.0 0.00 0.00 0.00 1006.0
20260504015739 -17 74 0.0 0.0 0.00 0.00 0.00 1006.3
20260504015236 -17 71 0.0 0.0 0.00 0.00 0.00 1006.1
20260504014731 -17 67 0.0 0.0 0.00 0.00 0.00 1005.8
20260504014228 -17 63 0.0 0.0 0.00 0.00 0.00 1005.9
20260504013726 -17 59 1.6 1.6 0.00 0.00 0.00 1005.9
20260504013224 -17 65 0.0 1.6 0.00 0.00 0.00 1006.1
20260504012720 -17 71 0.0 0.0 0.00 0.00 0.00 1006.0
20260504012218 -17 58 1.6 1.6 0.00 0.00 0.00 1005.9
20260504011714 -17 73 0.0 0.0 0.00 0.00 0.00 1005.8
20260504011211 -17 62 0.0 1.6 0.00 0.00 0.00 1005.9
20260504010707 -17 61 1.6 1.6 0.00 0.00 0.00 1006.0
20260504010203 -17 70 0.0 0.0 0.00 0.00 0.00 1006.0
20260504005700 -17 75 0.0 0.0 0.00 0.00 0.00 1005.7
20260504005157 -17 70 0.0 0.0 0.00 0.00 0.00 1005.8
20260504004655 -17 80 0.0 0.0 0.00 0.00 0.00 1005.7
20260504004151 -17 85 0.0 0.0 0.00 0.00 0.00 1005.6
20260504003648 -17 82 0.0 0.0 0.00 0.00 0.00 1005.8
20260504003144 -17 79 0.0 0.0 0.00 0.00 0.00 1005.5
20260504002641 -17 91 0.0 0.0 0.00 0.00 0.00 1005.7
20260504002139 -17 101 0.0 0.0 0.00 0.00 0.00 1005.9
20260504001637 -17 120 0.0 1.6 0.00 0.00 0.00 1005.8
20260504001132 -17 41 1.6 3.2 0.00 0.00 0.00 1005.8
20260504000630 -17 68 3.2 3.2 0.00 0.00 0.00 1005.8
20260504000127 -17 108 1.6 1.6 0.00 0.00 0.00 1005.7
20260503235625 -17 180 0.0 1.6 0.00 0.00 0.00 1005.8
20260503235121 -17 85 0.0 0.0 0.00 0.00 0.00 1005.6
20260503234620 -17 65 1.6 1.6 0.00 0.00 0.00 1005.9
20260503234117 -17 315 1.6 1.6 0.00 0.00 0.00 1005.7
20260503233614 -17 156 1.6 1.6 0.00 0.00 0.00 1005.9
20260503233110 -17 59 1.6 1.6 0.00 0.00 0.00 1005.6
20260503232607 -17 203 1.6 1.6 0.00 0.00 0.00 1005.8
20260503232104 -17 62 3.2 3.2 0.00 0.00 0.00 1005.9
20260503231602 -17 98 0.0 0.0 0.00 0.00 0.00 1006.0
20260503231059 -17 62 4.8 4.8 0.00 0.00 0.00 1005.9
20260503230555 -17 81 1.6 1.6 0.00 0.00 0.00 1005.8
20260503230053 -17 109 1.6 1.6 0.00 0.00 0.00 1006.1
20260503225549 -17 99 4.8 4.8 0.00 0.00 0.00 1006.0
20260503225044 -17 104 1.6 1.6 0.00 0.00 0.00 1006.2
20260503224542 -17 93 1.6 1.6 0.00 0.00 0.00 1006.3
20260503224040 -17 193 3.2 3.2 0.00 0.00 0.00 1006.3
20260503223538 -17 113 1.6 3.2 0.00 0.00 0.00 1006.3
20260503223033 -17 76 3.2 4.8 0.00 0.00 0.00 1006.4
20260503222531 -17 203 3.2 3.2 0.00 0.00 0.00 1006.2
20260503222029 -17 341 4.8 8.0 0.00 0.00 0.00 1006.2
20260503221527 -17 84 4.8 4.8 0.00 0.00 0.00 1006.3
20260503221024 -17 180 1.6 3.2 0.00 0.00 0.00 1006.1
20260503220520 -17 26 8.0 12.9 0.00 0.00 0.00 1006.1
20260503220017 -17 46 3.2 4.8 0.00 0.00 0.00 1006.2
20260503215514 -17 286 1.6 1.6 0.00 0.00 0.00 1006.2
20260503215011 -17 151 4.8 4.8 0.00 0.00 0.00 1006.5
20260503214510 -17 185 3.2 3.2 0.00 0.00 0.00 1006.2
20260503214006 -17 160 3.2 4.8 0.00 0.00 0.00 1006.2
20260503213504 -17 119 3.2 4.8 0.00 0.00 0.00 1006.4
20260503213000 -17 183 6.4 9.7 0.00 0.00 0.00 1006.4
20260503212458 -17 168 4.8 4.8 0.00 0.00 0.00 1006.5
20260503211955 -17 203 4.8 8.0 0.00 0.00 0.00 1006.7
20260503211452 -17 25 1.6 3.2 0.00 0.00 0.00 1006.7
20260503210948 -17 214 1.6 3.2 0.00 0.00 0.00 1006.6
20260503210445 -17 11 1.6 3.2 0.00 0.00 0.00 1006.6
20260503205939 -17 200 1.6 3.2 0.00 0.00 0.00 1006.6
20260503205437 -17 210 3.2 3.2 0.00 0.00 0.00 1006.9
20260503204932 25 256 4.8 4.8 0.00 0.00 0.00 34 1006.9
20260503204430 25 127 4.8 9.7 0.00 0.00 0.00 36 1007.2
20260503203927 25 70 3.2 3.2 0.00 0.00 0.00 40 1007.3
20260503203424 25 347 4.8 8.0 0.00 0.00 0.00 34 1007.3
20260503202921 25 355 1.6 8.0 0.00 0.00 0.00 35 1007.5
20260503202419 25 322 1.6 3.2 0.00 0.00 0.00 36 1007.7
20260503201918 25 100 4.8 4.8 0.00 0.00 0.00 36 1007.6
20260503201414 25 86 1.6 1.6 0.00 0.00 0.00 34 1007.8
20260503200912 25 128 4.8 4.8 0.00 0.00 0.00 35 1008.1
20260503200408 25 206 3.2 3.2 0.00 0.00 0.00 43 1007.9
20260503195905 25 198 3.2 3.2 0.00 0.00 0.00 36 1008.3
20260503195401 24 63 3.2 3.2 0.00 0.00 0.00 39 1008.8
20260503194858 24 168 4.8 4.8 0.00 0.00 0.00 43 1008.6
20260503194355 25 223 6.4 9.7 0.00 0.00 0.00 40 1008.8
20260503193851 25 35 3.2 3.2 0.00 0.00 0.00 39 1009.0
20260503193347 24 127 3.2 3.2 0.00 0.00 0.00 40 1009.2
20260503192843 23 16 8.0 9.7 0.00 0.00 0.00 37 1009.3
20260503192338 23 214 3.2 3.2 0.00 0.00 0.00 38 1009.4
20260503191835 23 117 4.8 4.8 0.00 0.00 0.00 39 1009.5
20260503191332 23 139 4.8 4.8 0.00 0.00 0.00 39 1010.0
20260503190829 23 117 1.6 3.2 0.00 0.00 0.00 38 1010.0
20260503190326 23 154 3.2 3.2 0.00 0.00 0.00 37 1010.0
20260503185823 23 89 1.6 1.6 0.00 0.00 0.00 40 1010.0
20260503185320 23 21 8.0 9.7 0.00 0.00 0.00 39 1010.3
20260503184819 22 200 3.2 4.8 0.00 0.00 0.00 37 1010.3